"Time","Value","Approval","myLocation"
"2023-05-06 00:00",29.831,"Approved","OW359"
"2023-05-06 01:00",29.832,"Approved","OW359"
"2023-05-06 02:00",29.834,"Approved","OW359"
"2023-05-06 03:00",29.828,"Approved","OW359"
"2023-05-06 04:00",29.827,"Approved","OW359"
"2023-05-06 05:00",29.827,"Approved","OW359"
"2023-05-06 06:00",29.822,"Approved","OW359"
"2023-05-06 07:00",29.822,"Approved","OW359"
"2023-05-06 08:00",29.823,"Approved","OW359"
"2023-05-06 09:00",29.83,"Approved","OW359"
"2023-05-06 10:00",29.827,"Approved","OW359"
"2023-05-06 11:00",29.834,"Approved","OW359"
"2023-05-06 12:00",29.838,"Approved","OW359"
"2023-05-06 13:00",29.844,"Approved","OW359"
"2023-05-06 14:00",29.841,"Approved","OW359"
"2023-05-06 15:00",29.842,"Approved","OW359"
"2023-05-06 16:00",29.844,"Approved","OW359"
"2023-05-06 17:00",29.84,"Approved","OW359"
"2023-05-06 18:00",29.836,"Approved","OW359"
"2023-05-06 19:00",29.828,"Approved","OW359"
"2023-05-06 20:00",29.827,"Approved","OW359"
"2023-05-06 21:00",29.825,"Approved","OW359"
"2023-05-06 22:00",29.823,"Approved","OW359"
"2023-05-06 23:00",29.826,"Approved","OW359"
"2023-05-07 00:00",29.824,"Approved","OW359"
"2023-05-07 01:00",29.824,"Approved","OW359"
"2023-05-07 02:00",29.82,"Approved","OW359"
"2023-05-07 03:00",29.821,"Approved","OW359"
"2023-05-07 04:00",29.816,"Approved","OW359"
"2023-05-07 05:00",29.817,"Approved","OW359"
"2023-05-07 06:00",29.819,"Approved","OW359"
"2023-05-07 07:00",29.815,"Approved","OW359"
"2023-05-07 08:00",29.821,"Approved","OW359"
"2023-05-07 09:00",29.817,"Approved","OW359"
"2023-05-07 10:00",29.827,"Approved","OW359"
"2023-05-07 11:00",29.837,"Approved","OW359"
"2023-05-07 12:00",29.846,"Approved","OW359"
"2023-05-07 13:00",29.854,"Approved","OW359"
"2023-05-07 14:00",29.859,"Approved","OW359"
"2023-05-07 15:00",29.862,"Approved","OW359"
"2023-05-07 16:00",29.86,"Approved","OW359"
"2023-05-07 17:00",29.859,"Approved","OW359"
"2023-05-07 18:00",29.855,"Approved","OW359"
"2023-05-07 19:00",29.849,"Approved","OW359"
"2023-05-07 20:00",29.85,"Approved","OW359"
"2023-05-07 21:00",29.847,"Approved","OW359"
"2023-05-07 22:00",29.844,"Approved","OW359"
"2023-05-07 23:00",29.841,"Approved","OW359"
"2023-05-08 00:00",29.841,"Approved","OW359"
"2023-05-08 01:00",29.84,"Approved","OW359"
"2023-05-08 02:00",29.836,"Approved","OW359"
"2023-05-08 03:00",29.831,"Approved","OW359"
"2023-05-08 04:00",29.832,"Approved","OW359"
"2023-05-08 05:00",29.827,"Approved","OW359"
"2023-05-08 06:00",29.832,"Approved","OW359"
"2023-05-08 07:00",29.837,"Approved","OW359"
"2023-05-08 08:00",29.84,"Approved","OW359"
"2023-05-08 09:00",29.846,"Approved","OW359"
"2023-05-08 10:00",29.858,"Approved","OW359"
"2023-05-08 11:00",29.861,"Approved","OW359"
"2023-05-08 12:00",29.866,"Approved","OW359"
"2023-05-08 13:00",29.868,"Approved","OW359"
"2023-05-08 14:00",29.871,"Approved","OW359"
"2023-05-08 15:00",29.868,"Approved","OW359"
"2023-05-08 16:00",29.868,"Approved","OW359"
"2023-05-08 17:00",29.869,"Approved","OW359"
"2023-05-08 18:00",29.87,"Approved","OW359"
"2023-05-08 19:00",29.87,"Approved","OW359"
"2023-05-08 20:00",29.869,"Approved","OW359"
"2023-05-08 21:00",29.869,"Approved","OW359"
"2023-05-08 22:00",29.865,"Approved","OW359"
"2023-05-08 23:00",29.859,"Approved","OW359"
"2023-05-09 00:00",29.858,"Approved","OW359"
"2023-05-09 01:00",29.858,"Approved","OW359"
"2023-05-09 02:00",29.856,"Approved","OW359"
"2023-05-09 03:00",29.859,"Approved","OW359"
"2023-05-09 04:00",29.861,"Approved","OW359"
"2023-05-09 05:00",29.863,"Approved","OW359"
"2023-05-09 06:00",29.875,"Approved","OW359"
"2023-05-09 07:00",29.884,"Approved","OW359"
"2023-05-09 08:00",29.892,"Approved","OW359"
"2023-05-09 09:00",29.907,"Approved","OW359"
"2023-05-09 10:00",29.918,"Approved","OW359"
"2023-05-09 11:00",29.924,"Approved","OW359"
"2023-05-09 12:00",29.926,"Approved","OW359"
"2023-05-09 13:00",29.934,"Approved","OW359"
"2023-05-09 14:00",29.938,"Approved","OW359"
"2023-05-09 15:00",29.935,"Approved","OW359"
"2023-05-09 16:00",29.94,"Approved","OW359"
"2023-05-09 17:00",29.938,"Approved","OW359"
"2023-05-09 18:00",29.935,"Approved","OW359"
"2023-05-09 19:00",29.933,"Approved","OW359"
"2023-05-09 20:00",29.93,"Approved","OW359"
"2023-05-09 21:00",29.927,"Approved","OW359"
"2023-05-09 22:00",29.922,"Approved","OW359"
"2023-05-09 23:00",29.919,"Approved","OW359"
"2023-05-10 00:00",29.91,"Approved","OW359"
"2023-05-10 01:00",29.907,"Approved","OW359"
"2023-05-10 02:00",29.904,"Approved","OW359"
"2023-05-10 03:00",29.898,"Approved","OW359"
"2023-05-10 04:00",29.897,"Approved","OW359"
"2023-05-10 05:00",29.895,"Approved","OW359"
"2023-05-10 06:00",29.888,"Approved","OW359"
"2023-05-10 07:00",29.888,"Approved","OW359"
"2023-05-10 08:00",29.893,"Approved","OW359"
"2023-05-10 09:00",29.894,"Approved","OW359"
"2023-05-10 10:00",29.896,"Approved","OW359"
"2023-05-10 11:00",29.903,"Approved","OW359"
"2023-05-10 12:00",29.91,"Approved","OW359"
"2023-05-10 13:00",29.912,"Approved","OW359"
"2023-05-10 14:00",29.917,"Approved","OW359"
"2023-05-10 15:00",29.92,"Approved","OW359"
"2023-05-10 16:00",29.92,"Approved","OW359"
"2023-05-10 17:00",29.925,"Approved","OW359"
"2023-05-10 18:00",29.935,"Approved","OW359"
"2023-05-10 19:00",29.945,"Approved","OW359"
"2023-05-10 20:00",29.952,"Approved","OW359"
"2023-05-10 21:00",29.954,"Approved","OW359"
"2023-05-10 22:00",29.96,"Approved","OW359"
"2023-05-10 23:00",29.965,"Approved","OW359"
"2023-05-11 00:00",29.961,"Approved","OW359"
"2023-05-11 01:00",29.967,"Approved","OW359"
"2023-05-11 02:00",29.969,"Approved","OW359"
"2023-05-11 03:00",29.969,"Approved","OW359"
"2023-05-11 04:00",29.968,"Approved","OW359"
"2023-05-11 05:00",29.966,"Approved","OW359"
"2023-05-11 06:00",29.964,"Approved","OW359"
"2023-05-11 07:00",29.967,"Approved","OW359"
"2023-05-11 08:00",29.965,"Approved","OW359"
"2023-05-11 09:00",29.966,"Approved","OW359"
"2023-05-11 10:00",29.966,"Approved","OW359"
"2023-05-11 11:00",29.97,"Approved","OW359"
"2023-05-11 12:00",29.973,"Approved","OW359"
"2023-05-11 13:00",29.973,"Approved","OW359"
"2023-05-11 14:00",29.98,"Approved","OW359"
"2023-05-11 15:00",29.985,"Approved","OW359"
"2023-05-11 16:00",29.989,"Approved","OW359"
"2023-05-11 17:00",29.998,"Approved","OW359"
"2023-05-11 18:00",30.005,"Approved","OW359"
"2023-05-11 19:00",30.002,"Approved","OW359"
"2023-05-11 20:00",30.009,"Approved","OW359"
"2023-05-11 21:00",30.009,"Approved","OW359"
"2023-05-11 22:00",30.014,"Approved","OW359"
"2023-05-11 23:00",30.015,"Approved","OW359"
"2023-05-12 00:00",30.009,"Approved","OW359"
"2023-05-12 01:00",30.001,"Approved","OW359"
"2023-05-12 02:00",29.994,"Approved","OW359"
"2023-05-12 03:00",29.988,"Approved","OW359"
"2023-05-12 04:00",29.986,"Approved","OW359"
"2023-05-12 05:00",29.982,"Approved","OW359"
"2023-05-12 06:00",29.983,"Approved","OW359"
"2023-05-12 07:00",29.986,"Approved","OW359"
"2023-05-12 08:00",29.993,"Approved","OW359"
"2023-05-12 09:00",30.005,"Approved","OW359"
"2023-05-12 10:00",30.009,"Approved","OW359"
"2023-05-12 11:00",30.016,"Approved","OW359"
"2023-05-12 12:00",30.032,"Approved","OW359"
"2023-05-12 13:00",30.04,"Approved","OW359"
"2023-05-12 14:00",30.045,"Approved","OW359"
"2023-05-12 15:00",30.056,"Approved","OW359"
"2023-05-12 16:00",30.059,"Approved","OW359"
"2023-05-12 17:00",30.064,"Approved","OW359"
"2023-05-12 18:00",30.074,"Approved","OW359"
"2023-05-12 19:00",30.083,"Approved","OW359"
"2023-05-12 20:00",30.096,"Approved","OW359"
"2023-05-12 21:00",30.101,"Approved","OW359"
"2023-05-12 22:00",30.104,"Approved","OW359"
"2023-05-12 23:00",30.106,"Approved","OW359"
"2023-05-13 00:00",30.107,"Approved","OW359"
"2023-05-13 01:00",30.108,"Approved","OW359"
"2023-05-13 02:00",30.112,"Approved","OW359"
"2023-05-13 03:00",30.111,"Approved","OW359"
"2023-05-13 04:00",30.102,"Approved","OW359"
"2023-05-13 05:00",30.109,"Approved","OW359"
"2023-05-13 06:00",30.102,"Approved","OW359"
"2023-05-13 07:00",30.105,"Approved","OW359"
"2023-05-13 08:00",30.107,"Approved","OW359"
"2023-05-13 09:00",30.107,"Approved","OW359"
"2023-05-13 10:00",30.115,"Approved","OW359"
"2023-05-13 11:00",30.122,"Approved","OW359"
"2023-05-13 12:00",30.127,"Approved","OW359"
"2023-05-13 13:00",30.132,"Approved","OW359"
"2023-05-13 14:00",30.137,"Approved","OW359"
"2023-05-13 15:00",30.141,"Approved","OW359"
"2023-05-13 16:00",30.148,"Approved","OW359"
"2023-05-13 17:00",30.156,"Approved","OW359"
"2023-05-13 18:00",30.157,"Approved","OW359"
"2023-05-13 19:00",30.165,"Approved","OW359"
"2023-05-13 20:00",30.17,"Approved","OW359"
"2023-05-13 21:00",30.174,"Approved","OW359"
"2023-05-13 22:00",30.177,"Approved","OW359"
"2023-05-13 23:00",30.172,"Approved","OW359"
"2023-05-14 00:00",30.17,"Approved","OW359"
"2023-05-14 01:00",30.163,"Approved","OW359"
"2023-05-14 02:00",30.158,"Approved","OW359"
"2023-05-14 03:00",30.148,"Approved","OW359"
"2023-05-14 04:00",30.148,"Approved","OW359"
"2023-05-14 05:00",30.144,"Approved","OW359"
"2023-05-14 06:00",30.142,"Approved","OW359"
"2023-05-14 07:00",30.138,"Approved","OW359"
"2023-05-14 08:00",30.138,"Approved","OW359"
"2023-05-14 09:00",30.137,"Approved","OW359"
"2023-05-14 10:00",30.133,"Approved","OW359"
"2023-05-14 11:00",30.134,"Approved","OW359"
"2023-05-14 12:00",30.135,"Approved","OW359"
"2023-05-14 13:00",30.135,"Approved","OW359"
"2023-05-14 14:00",30.14,"Approved","OW359"
"2023-05-14 15:00",30.141,"Approved","OW359"
"2023-05-14 16:00",30.145,"Approved","OW359"
"2023-05-14 17:00",30.146,"Approved","OW359"
"2023-05-14 18:00",30.148,"Approved","OW359"
"2023-05-14 19:00",30.148,"Approved","OW359"
"2023-05-14 20:00",30.145,"Approved","OW359"
"2023-05-14 21:00",30.149,"Approved","OW359"
"2023-05-14 22:00",30.145,"Approved","OW359"
"2023-05-14 23:00",30.142,"Approved","OW359"
"2023-05-15 00:00",30.136,"Approved","OW359"
"2023-05-15 01:00",30.125,"Approved","OW359"
"2023-05-15 02:00",30.117,"Approved","OW359"
"2023-05-15 03:00",30.113,"Approved","OW359"
"2023-05-15 04:00",30.11,"Approved","OW359"
"2023-05-15 05:00",30.107,"Approved","OW359"
"2023-05-15 06:00",30.103,"Approved","OW359"
"2023-05-15 07:00",30.105,"Approved","OW359"
"2023-05-15 08:00",30.107,"Approved","OW359"
"2023-05-15 09:00",30.11,"Approved","OW359"
"2023-05-15 10:00",30.124,"Approved","OW359"
"2023-05-15 11:00",30.132,"Approved","OW359"
"2023-05-15 12:00",30.143,"Approved","OW359"
"2023-05-15 13:00",30.16,"Approved","OW359"
"2023-05-15 14:00",30.17,"Approved","OW359"
"2023-05-15 15:00",30.175,"Approved","OW359"
"2023-05-15 16:00",30.178,"Approved","OW359"
"2023-05-15 17:00",30.184,"Approved","OW359"
"2023-05-15 18:00",30.192,"Approved","OW359"
"2023-05-15 19:00",30.204,"Approved","OW359"
"2023-05-15 20:00",30.208,"Approved","OW359"
"2023-05-15 21:00",30.221,"Approved","OW359"
"2023-05-15 22:00",30.228,"Approved","OW359"
"2023-05-15 23:00",30.233,"Approved","OW359"
"2023-05-16 00:00",30.239,"Approved","OW359"
"2023-05-16 01:00",30.243,"Approved","OW359"
"2023-05-16 02:00",30.246,"Approved","OW359"
"2023-05-16 03:00",30.251,"Approved","OW359"
"2023-05-16 04:00",30.249,"Approved","OW359"
"2023-05-16 05:00",30.248,"Approved","OW359"
"2023-05-16 06:00",30.253,"Approved","OW359"
"2023-05-16 07:00",30.259,"Approved","OW359"
"2023-05-16 08:00",30.264,"Approved","OW359"
"2023-05-16 09:00",30.277,"Approved","OW359"
"2023-05-16 10:00",30.293,"Approved","OW359"
"2023-05-16 11:00",30.305,"Approved","OW359"
"2023-05-16 12:00",30.312,"Approved","OW359"
"2023-05-16 13:00",30.313,"Approved","OW359"
"2023-05-16 14:00",30.309,"Approved","OW359"
"2023-05-16 15:00",30.308,"Approved","OW359"
"2023-05-16 16:00",30.31,"Approved","OW359"
"2023-05-16 17:00",30.312,"Approved","OW359"
"2023-05-16 18:00",30.31,"Approved","OW359"
"2023-05-16 19:00",30.308,"Approved","OW359"
"2023-05-16 20:00",30.311,"Approved","OW359"
"2023-05-16 21:00",30.308,"Approved","OW359"
"2023-05-16 22:00",30.305,"Approved","OW359"
"2023-05-16 23:00",30.294,"Approved","OW359"
"2023-05-17 00:00",30.276,"Approved","OW359"
"2023-05-17 01:00",30.263,"Approved","OW359"
"2023-05-17 02:00",30.249,"Approved","OW359"
"2023-05-17 03:00",30.237,"Approved","OW359"
"2023-05-17 04:00",30.226,"Approved","OW359"
"2023-05-17 05:00",30.22,"Approved","OW359"
"2023-05-17 06:00",30.212,"Approved","OW359"
"2023-05-17 07:00",30.209,"Approved","OW359"
"2023-05-17 08:00",30.209,"Approved","OW359"
"2023-05-17 09:00",30.216,"Approved","OW359"
"2023-05-17 10:00",30.227,"Approved","OW359"
"2023-05-17 11:00",30.232,"Approved","OW359"
"2023-05-17 12:00",30.241,"Approved","OW359"
"2023-05-17 13:00",30.242,"Approved","OW359"
"2023-05-17 14:00",30.25,"Approved","OW359"
"2023-05-17 15:00",30.258,"Approved","OW359"
"2023-05-17 16:00",30.263,"Approved","OW359"
"2023-05-17 17:00",30.271,"Approved","OW359"
"2023-05-17 18:00",30.28,"Approved","OW359"
"2023-05-17 19:00",30.282,"Approved","OW359"
"2023-05-17 20:00",30.27,"Approved","OW359"
"2023-05-17 21:00",30.271,"Approved","OW359"
"2023-05-17 22:00",30.261,"Approved","OW359"
"2023-05-17 23:00",30.254,"Approved","OW359"
"2023-05-18 00:00",30.255,"Approved","OW359"
"2023-05-18 01:00",30.262,"Approved","OW359"
"2023-05-18 02:00",30.261,"Approved","OW359"
"2023-05-18 03:00",30.264,"Approved","OW359"
"2023-05-18 04:00",30.26,"Approved","OW359"
"2023-05-18 05:00",30.259,"Approved","OW359"
"2023-05-18 06:00",30.25,"Approved","OW359"
"2023-05-18 07:00",30.251,"Approved","OW359"
"2023-05-18 08:00",30.251,"Approved","OW359"
"2023-05-18 09:00",30.256,"Approved","OW359"
"2023-05-18 10:00",30.263,"Approved","OW359"
"2023-05-18 11:00",30.274,"Approved","OW359"
"2023-05-18 12:00",30.294,"Approved","OW359"
"2023-05-18 13:00",30.31,"Approved","OW359"
"2023-05-18 14:00",30.323,"Approved","OW359"
"2023-05-18 15:00",30.323,"Approved","OW359"
"2023-05-18 16:00",30.337,"Approved","OW359"
"2023-05-18 17:00",30.351,"Approved","OW359"
"2023-05-18 18:00",30.357,"Approved","OW359"
"2023-05-18 19:00",30.352,"Approved","OW359"
"2023-05-18 20:00",30.348,"Approved","OW359"
"2023-05-18 21:00",30.341,"Approved","OW359"
"2023-05-18 22:00",30.337,"Approved","OW359"
"2023-05-18 23:00",30.326,"Approved","OW359"
"2023-05-19 00:00",30.317,"Approved","OW359"
"2023-05-19 01:00",30.306,"Approved","OW359"
"2023-05-19 02:00",30.298,"Approved","OW359"
"2023-05-19 03:00",30.288,"Approved","OW359"
"2023-05-19 04:00",30.282,"Approved","OW359"
"2023-05-19 05:00",30.27,"Approved","OW359"
"2023-05-19 06:00",30.266,"Approved","OW359"
"2023-05-19 07:00",30.268,"Approved","OW359"
"2023-05-19 08:00",30.279,"Approved","OW359"
"2023-05-19 09:00",30.296,"Approved","OW359"
"2023-05-19 10:00",30.326,"Approved","OW359"
"2023-05-19 11:00",30.352,"Approved","OW359"
"2023-05-19 12:00",30.369,"Approved","OW359"
"2023-05-19 13:00",30.388,"Approved","OW359"
"2023-05-19 14:00",30.383,"Approved","OW359"
"2023-05-19 15:00",30.379,"Approved","OW359"
"2023-05-19 16:00",30.372,"Approved","OW359"
"2023-05-19 17:00",30.363,"Approved","OW359"
"2023-05-19 18:00",30.354,"Approved","OW359"
"2023-05-19 19:00",30.357,"Approved","OW359"
"2023-05-19 20:00",30.355,"Approved","OW359"
"2023-05-19 21:00",30.362,"Approved","OW359"
"2023-05-19 22:00",30.369,"Approved","OW359"
"2023-05-19 23:00",30.369,"Approved","OW359"
"2023-05-20 00:00",30.378,"Approved","OW359"
"2023-05-20 01:00",30.385,"Approved","OW359"
"2023-05-20 02:00",30.387,"Approved","OW359"
"2023-05-20 03:00",30.39,"Approved","OW359"
"2023-05-20 04:00",30.393,"Approved","OW359"
"2023-05-20 05:00",30.388,"Approved","OW359"
"2023-05-20 06:00",30.385,"Approved","OW359"
"2023-05-20 07:00",30.383,"Approved","OW359"
"2023-05-20 08:00",30.377,"Approved","OW359"
"2023-05-20 09:00",30.377,"Approved","OW359"
"2023-05-20 10:00",30.379,"Approved","OW359"
"2023-05-20 11:00",30.384,"Approved","OW359"
"2023-05-20 12:00",30.396,"Approved","OW359"
"2023-05-20 13:00",30.407,"Approved","OW359"
"2023-05-20 14:00",30.414,"Approved","OW359"
"2023-05-20 15:00",30.426,"Approved","OW359"
"2023-05-20 16:00",30.439,"Approved","OW359"
"2023-05-20 17:00",30.449,"Approved","OW359"
"2023-05-20 18:00",30.453,"Approved","OW359"
"2023-05-20 19:00",30.45,"Approved","OW359"
"2023-05-20 20:00",30.449,"Approved","OW359"
"2023-05-20 21:00",30.443,"Approved","OW359"
"2023-05-20 22:00",30.439,"Approved","OW359"
"2023-05-20 23:00",30.43,"Approved","OW359"
"2023-05-21 00:00",30.42,"Approved","OW359"
"2023-05-21 01:00",30.408,"Approved","OW359"
"2023-05-21 02:00",30.393,"Approved","OW359"
"2023-05-21 03:00",30.386,"Approved","OW359"
"2023-05-21 04:00",30.373,"Approved","OW359"
"2023-05-21 05:00",30.37,"Approved","OW359"
"2023-05-21 06:00",30.364,"Approved","OW359"
"2023-05-21 07:00",30.358,"Approved","OW359"
"2023-05-21 08:00",30.353,"Approved","OW359"
"2023-05-21 09:00",30.346,"Approved","OW359"
"2023-05-21 10:00",30.351,"Approved","OW359"
"2023-05-21 11:00",30.355,"Approved","OW359"
"2023-05-21 12:00",30.364,"Approved","OW359"
"2023-05-21 13:00",30.368,"Approved","OW359"
"2023-05-21 14:00",30.372,"Approved","OW359"
"2023-05-21 15:00",30.374,"Approved","OW359"
"2023-05-21 16:00",30.377,"Approved","OW359"
"2023-05-21 17:00",30.376,"Approved","OW359"
"2023-05-21 18:00",30.37,"Approved","OW359"
"2023-05-21 19:00",30.365,"Approved","OW359"
"2023-05-21 20:00",30.36,"Approved","OW359"
"2023-05-21 21:00",30.354,"Approved","OW359"
"2023-05-21 22:00",30.351,"Approved","OW359"
"2023-05-21 23:00",30.345,"Approved","OW359"
"2023-05-22 00:00",30.336,"Approved","OW359"
"2023-05-22 01:00",30.329,"Approved","OW359"
"2023-05-22 02:00",30.321,"Approved","OW359"
"2023-05-22 03:00",30.312,"Approved","OW359"
"2023-05-22 04:00",30.306,"Approved","OW359"
"2023-05-22 05:00",30.305,"Approved","OW359"
"2023-05-22 06:00",30.3,"Approved","OW359"
"2023-05-22 07:00",30.303,"Approved","OW359"
"2023-05-22 08:00",30.295,"Approved","OW359"
"2023-05-22 09:00",30.295,"Approved","OW359"
"2023-05-22 10:00",30.302,"Approved","OW359"
"2023-05-22 11:00",30.305,"Approved","OW359"
"2023-05-22 12:00",30.31,"Approved","OW359"
"2023-05-22 13:00",30.316,"Approved","OW359"
"2023-05-22 14:00",30.319,"Approved","OW359"
"2023-05-22 15:00",30.324,"Approved","OW359"
"2023-05-22 16:00",30.327,"Approved","OW359"
"2023-05-22 17:00",30.329,"Approved","OW359"
"2023-05-22 18:00",30.335,"Approved","OW359"
"2023-05-22 19:00",30.336,"Approved","OW359"
"2023-05-22 20:00",30.341,"Approved","OW359"
"2023-05-22 21:00",30.34,"Approved","OW359"
"2023-05-22 22:00",30.339,"Approved","OW359"
"2023-05-22 23:00",30.342,"Approved","OW359"
"2023-05-23 00:00",30.338,"Approved","OW359"
"2023-05-23 01:00",30.332,"Approved","OW359"
"2023-05-23 02:00",30.332,"Approved","OW359"
"2023-05-23 03:00",30.329,"Approved","OW359"
"2023-05-23 04:00",30.323,"Approved","OW359"
"2023-05-23 05:00",30.319,"Approved","OW359"
"2023-05-23 06:00",30.311,"Approved","OW359"
"2023-05-23 07:00",30.312,"Approved","OW359"
"2023-05-23 08:00",30.31,"Approved","OW359"
"2023-05-23 09:00",30.312,"Approved","OW359"
"2023-05-23 10:00",30.313,"Approved","OW359"
"2023-05-23 11:00",30.308,"Approved","OW359"
"2023-05-23 13:00",30.297010123231,"Approved","OW359"
"2023-05-23 14:00",30.298010123231,"Approved","OW359"
"2023-05-23 15:00",30.304010123231,"Approved","OW359"
"2023-05-23 16:00",30.315010123231,"Approved","OW359"
"2023-05-23 17:00",30.326010123231,"Approved","OW359"
"2023-05-23 18:00",30.329010123231,"Approved","OW359"
"2023-05-23 19:00",30.327010123231,"Approved","OW359"
"2023-05-23 20:00",30.325010123231,"Approved","OW359"
"2023-05-23 21:00",30.323010123231,"Approved","OW359"
"2023-05-23 22:00",30.316010123231,"Approved","OW359"
"2023-05-23 23:00",30.310010123231,"Approved","OW359"
"2023-05-24 00:00",30.304010123231,"Approved","OW359"
"2023-05-24 01:00",30.294010123231,"Approved","OW359"
"2023-05-24 02:00",30.282010123231,"Approved","OW359"
"2023-05-24 03:00",30.276010123231,"Approved","OW359"
"2023-05-24 04:00",30.272010123231,"Approved","OW359"
"2023-05-24 05:00",30.267010123231,"Approved","OW359"
"2023-05-24 06:00",30.266010123231,"Approved","OW359"
"2023-05-24 07:00",30.258010123231,"Approved","OW359"
"2023-05-24 08:00",30.261010123231,"Approved","OW359"
"2023-05-24 09:00",30.263010123231,"Approved","OW359"
"2023-05-24 10:00",30.268010123231,"Approved","OW359"
"2023-05-24 11:00",30.275010123231,"Approved","OW359"
"2023-05-24 12:00",30.282010123231,"Approved","OW359"
"2023-05-24 13:00",30.284010123231,"Approved","OW359"
"2023-05-24 14:00",30.285010123231,"Approved","OW359"
"2023-05-24 15:00",30.292010123231,"Approved","OW359"
"2023-05-24 16:00",30.291010123231,"Approved","OW359"
"2023-05-24 17:00",30.289010123231,"Approved","OW359"
"2023-05-24 18:00",30.295010123231,"Approved","OW359"
"2023-05-24 19:00",30.296010123231,"Approved","OW359"
"2023-05-24 20:00",30.299010123231,"Approved","OW359"
"2023-05-24 21:00",30.304010123231,"Approved","OW359"
"2023-05-24 22:00",30.310010123231,"Approved","OW359"
"2023-05-24 23:00",30.310010123231,"Approved","OW359"
"2023-05-25 00:00",30.312010123231,"Approved","OW359"
"2023-05-25 01:00",30.310010123231,"Approved","OW359"
"2023-05-25 02:00",30.311010123231,"Approved","OW359"
"2023-05-25 03:00",30.309010123231,"Approved","OW359"
"2023-05-25 04:00",30.304010123231,"Approved","OW359"
"2023-05-25 05:00",30.300010123231,"Approved","OW359"
"2023-05-25 06:00",30.298010123231,"Approved","OW359"
"2023-05-25 07:00",30.297010123231,"Approved","OW359"
"2023-05-25 08:00",30.291010123231,"Approved","OW359"
"2023-05-25 09:00",30.298010123231,"Approved","OW359"
"2023-05-25 10:00",30.298010123231,"Approved","OW359"
"2023-05-25 11:00",30.307010123231,"Approved","OW359"
"2023-05-25 12:00",30.317010123231,"Approved","OW359"
"2023-05-25 13:00",30.326010123231,"Approved","OW359"
"2023-05-25 14:00",30.337010123231,"Approved","OW359"
"2023-05-25 15:00",30.345010123231,"Approved","OW359"
"2023-05-25 16:00",30.355010123231,"Approved","OW359"
"2023-05-25 17:00",30.364010123231,"Approved","OW359"
"2023-05-25 18:00",30.372010123231,"Approved","OW359"
"2023-05-25 19:00",30.381010123231,"Approved","OW359"
"2023-05-25 20:00",30.387010123231,"Approved","OW359"
"2023-05-25 21:00",30.388010123231,"Approved","OW359"
"2023-05-25 22:00",30.391010123231,"Approved","OW359"
"2023-05-25 23:00",30.390010123231,"Approved","OW359"
"2023-05-26 00:00",30.379010123231,"Approved","OW359"
"2023-05-26 01:00",30.369010123231,"Approved","OW359"
"2023-05-26 02:00",30.355010123231,"Approved","OW359"
"2023-05-26 03:00",30.338010123231,"Approved","OW359"
"2023-05-26 04:00",30.327010123231,"Approved","OW359"
"2023-05-26 05:00",30.321010123231,"Approved","OW359"
"2023-05-26 06:00",30.313010123231,"Approved","OW359"
"2023-05-26 07:00",30.316010123231,"Approved","OW359"
"2023-05-26 08:00",30.325010123231,"Approved","OW359"
"2023-05-26 09:00",30.331010123231,"Approved","OW359"
"2023-05-26 10:00",30.348010123231,"Approved","OW359"
"2023-05-26 11:00",30.374010123231,"Approved","OW359"
"2023-05-26 12:00",30.400010123231,"Approved","OW359"
"2023-05-26 13:00",30.423010123231,"Approved","OW359"
"2023-05-26 14:00",30.435010123231,"Approved","OW359"
"2023-05-26 15:00",30.437010123231,"Approved","OW359"
"2023-05-26 16:00",30.436010123231,"Approved","OW359"
"2023-05-26 17:00",30.445010123231,"Approved","OW359"
"2023-05-26 18:00",30.465010123231,"Approved","OW359"
"2023-05-26 19:00",30.488010123231,"Approved","OW359"
"2023-05-26 20:00",30.502010123231,"Approved","OW359"
"2023-05-26 21:00",30.510010123231,"Approved","OW359"
"2023-05-26 22:00",30.513010123231,"Approved","OW359"
"2023-05-26 23:00",30.516010123231,"Approved","OW359"
"2023-05-27 00:00",30.513010123231,"Approved","OW359"
"2023-05-27 01:00",30.507010123231,"Approved","OW359"